Location: *
(12.9883°N, 61.2619°W)
Time: 22:00:13
(UTC+00:00)

Daily predictions for brighter satellites

Satellite Brightness Start Highest point End
(mag) Time Altitude Azimuth Time Altitude Azimuth Time Altitude Azimuth
Cosmos 2098 Rocket 4.4 22:17:23 10° N 22:24:52 75° E 22:31:50 10° S
Cosmos 1975 2.9 22:21:07 10° S 22:25:00 55° E 22:28:53 10° NNE
H-2A R/B 4.2 22:22:56 10° S 22:26:25 42° W 22:29:54 10° NNW
Envisat 3.0 22:22:14 10° SSE 22:27:13 62° ENE 22:32:13 10° N
YAOGAN 6 3.2 22:24:51 10° SE 22:28:07 34° ENE 22:31:23 10° NNE
DELTA 2 R/B (1) 3.9 22:23:32 10° WSW 22:29:07 72° NW 22:34:43 10° NE
deb Ariane 4.3 22:27:32 10° SSW 22:29:15 16° SSE 22:31:45 10° ESE
Cosmos 1743 3.1 22:27:45 10° S 22:31:32 67° W 22:35:19 10° N
Meteor 2-21 Rocket 4.4 22:27:05 10° N 22:33:15 73° E 22:39:23 10° S
Lacrosse 4 Rocket 3.3 22:34:30 10° ENE 22:35:12 10° ENE 22:35:54 10° ENE
SWIFT 3.1 22:31:52 10° WNW 22:35:50 40° N 22:39:39 11° E
Shi Jian 4 4.5 22:34:21 10° SSW 22:36:22 23° SSE 22:37:51 12° E
Cosmos 1461 3.5 22:32:36 10° SSW 22:36:45 60° WNW 22:40:45 10° NNE
Maqsat-H 4.1 22:35:23 10° SW 22:39:57 30° SSE 22:51:27 13° E
Okean 2 4.2 22:36:36 10° NNE 22:40:09 29° E 22:43:44 10° SE
Cosmos 2322 Rocket 2.7 22:35:04 10° N 22:40:10 36° ENE 22:45:17 10° SE
Cosmos 1975 Rocket 3.0 22:38:49 10° N 22:43:15 71° E 22:47:38 10° S
APEX 2.3 22:43:03 10° N 22:45:50 56° ENE 22:48:28 10° SSE
Okean 2 Rocket 4.1 22:44:39 10° SSW 22:48:56 51° W 22:53:15 10° N
CZ-4 R/B 1.4 22:46:29 10° S 22:50:19 76° WSW 22:54:09 10° NNW
Okean 1 Rocket 3.8 22:47:29 10° SSE 22:51:11 28° E 22:54:53 10° NNE
Cosmos 494 Rocket 4.0 22:46:49 10° N 22:51:57 58° ENE 22:57:05 10° SSE
PSLV R/B 3.6 22:51:41 10° WSW 22:54:16 47° NW 22:56:41 11° NE
ARIANE 5 R/B 4.3 22:53:15 10° S 22:55:19 14° SSE 22:57:42 12° SE
GPS 2-18 Rocket1 3.4 22:54:56 10° W 22:58:35 55° SSW 23:00:48 21° SE
Mugunghwa Rocket 4.0 22:56:00 10° WSW 23:02:19 83° NNW 23:07:32 16° ENE
Sylda 5 3.5 22:58:47 10° WSW 23:02:20 25° S 23:04:17 16° SE
Cosmos 2219 3.6 22:57:30 10° S 23:02:44 38° ESE 23:08:00 10° NE
USA 32 4.2 22:58:32 10° NNE 23:03:35 50° E 23:08:39 10° SSE
ADEOS Rocket 4.1 22:57:55 10° NE 23:04:33 32° E 23:11:13 10° SSE
Cosmos 2227 Rocket 3.6 23:02:53 10° SSE 23:05:04 17° SE 23:05:04 17° SE
GP-B 3.2 23:04:47 10° NNE 23:09:05 50° E 23:13:23 10° SSE
Ariane Rocket 3.2 23:04:40 10° SSE 23:09:30 47° ENE 23:14:19 10° N
CZ-3 Stage 3 1.4 23:02:02 10° WSW 23:09:49 78° NNW 23:11:10 29° NE
Cosmos 2184 Rocket 4.3 23:04:57 10° NNE 23:10:47 41° E 23:16:40 10° SSE
ISS -3.9 23:08:26 10° SW 23:11:45 88° SE 23:13:18 29° NE
Cosmos 2360 Rocket 2.9 23:07:51 10° N 23:12:50 32° ENE 23:14:13 28° E
ASTEX 1 3.8 23:09:18 10° NNE 23:13:50 38° E 23:18:22 10° SSE
Cosmos 1269 Rocket 4.0 23:09:07 10° NNW 23:14:25 85° WSW 23:19:43 10° S
Cosmos 2297 Rocket 3.1 23:13:30 10° SSE 23:17:15 27° ESE 23:17:15 27° ESE
ARIANE 44L R/B 4.4 22:57:02 10° WSW 23:21:01 41° S 23:23:42 25° SE
GPS 2-14 Rocket1 3.7 23:17:33 10° WNW 23:21:03 35° N 23:22:12 28° NNE
YAOGAN 1 3.9 23:17:24 10° S 23:21:27 40° W 23:25:30 10° NNW
BREEZE-M DEB (TANK) 4.5 23:10:33 10° SSW 23:24:23 42° SE 23:26:01 35° ESE
Nadezhda 1 Rocket 4.0 23:21:24 10° S 23:27:32 83° W 23:33:36 10° N
Cosmos 1441 Rocket 3.6 23:24:12 10° SSW 23:28:04 63° W 23:31:52 10° N
CZ-2C R/B 4.0 23:24:00 10° N 23:28:21 64° WNW 23:32:44 10° SSW
SL-16 R/B 2.9 23:23:48 10° NNW 23:29:18 54° WSW 23:34:47 10° S
Cosmos 1939 Rocket 2.8 23:27:18 19° S 23:30:05 81° W 23:33:57 10° NNW
Cosmos 1536 Rocket 3.3 23:29:04 10° N 23:33:23 73° E 23:34:00 61° SE
Cosmos 1544 3.9 23:30:16 10° SSW 23:33:44 49° W 23:37:12 10° N
Cosmos 1025 Rocket 3.5 23:39:04 10° N 23:42:11 48° N 23:42:11 48° N
Cosmos 405 4.4 23:40:42 10° NNW 23:43:56 36° W 23:45:10 27° SW
Cosmos 2327 Rocket 4.3 23:37:57 10° N 23:44:01 63° E 23:45:23 50° SE
ARIANE 5 R/B 3.9 23:44:23 10° SSW 23:44:38 10° SSW 23:44:52 10° SSW
MOS 1 4.2 23:43:56 52° SE 23:45:12 69° ENE 23:50:51 10° N
GPS 2-17 Rocket1 3.6 23:46:07 10° W 23:49:58 47° NNW 23:49:58 47° NNW
USA 267 3.8 23:52:23 39° SSE 23:52:23 39° SSE 23:57:07 10° SSW
Lacrosse 5 rocket 3.0 23:49:10 10° SW 23:50:36 22° SW 23:50:36 22° SW
Cosmos 1371 Rocket 4.0 23:49:22 10° SSW 23:54:34 79° WNW 23:59:51 10° N
